WB0RXX Weather Reports


Display with metric or nautical units.
time (UTC)temp
F
wind
direction
speed
MPH
gust
MPH
rain 1hr
in
rain 24hr
in
rain mn
in
humidity
%
barometer
mb
20260508185003 70 300 6.0 11.0 0.00 0.00 0.00 31 1004.8
20260508184004 70 304 6.0 8.0 0.00 0.00 0.00 30 1004.9
20260508183004 71 277 3.0 9.0 0.00 0.00 0.00 32 1005.0
20260508182004 71 296 5.0 7.0 0.00 0.00 0.00 29 1005.0
20260508181003 70 310 5.0 11.0 0.00 0.00 0.00 29 1005.2
20260508180004 70 301 7.0 12.0 0.00 0.00 0.00 29 1005.3
20260508175003 70 278 3.0 5.0 0.00 0.00 0.00 28 1005.4
20260508174002 70 46 2.0 1.0 0.00 0.00 0.00 28 1005.5
20260508173003 70 295 6.0 10.0 0.00 0.00 0.00 27 1005.9
20260508172003 70 319 4.0 10.0 0.00 0.00 0.00 25 1005.8
20260508171005 70 291 3.0 11.0 0.00 0.00 0.00 26 1005.9
20260508170005 70 288 3.0 7.0 0.00 0.00 0.00 25 1006.0
20260508165003 70 303 0.0 1.0 0.00 0.00 0.00 26 1006.3
20260508164004 69 234 2.0 3.0 0.00 0.00 0.00 29 1006.5
20260508163003 68 230 0.0 3.0 0.00 0.00 0.00 31 1006.5
20260508162005 68 295 1.0 3.0 0.00 0.00 0.00 28 1006.6
20260508161003 67 320 1.0 3.0 0.00 0.00 0.00 30 1006.8
20260508160019 66 17 0.0 1.0 0.00 0.00 0.00 33 1006.8
20260508155019 65 338 2.0 3.0 0.00 0.00 0.00 34 1006.9
20260508154004 64 235 3.0 5.0 0.00 0.00 0.00 33 1007.0
20260508153004 63 321 1.0 3.0 0.00 0.00 0.00 36 1007.2
20260508152003 62 346 2.0 4.0 0.00 0.00 0.00 35 1007.5
20260508151004 61 295 0.0 1.0 0.00 0.00 0.00 38 1007.6
20260508150004 59 300 0.0 0.0 0.00 0.00 0.00 40 1007.8
20260508145005 58 300 2.0 2.0 0.00 0.00 0.00 41 1007.9
20260508144002 57 262 0.0 3.0 0.00 0.00 0.00 42 1008.0
20260508143002 56 333 1.0 2.0 0.00 0.00 0.00 42 1008.1
20260508142003 55 276 0.0 2.0 0.00 0.00 0.00 45 1008.2
20260508141018 54 262 1.0 1.0 0.00 0.00 0.00 46 1008.3
20260508140004 53 350 2.0 3.0 0.00 0.00 0.00 46 1008.3
20260508135003 52 350 0.0 0.0 0.00 0.00 0.00 48 1008.3
20260508134019 51 346 0.0 1.0 0.00 0.00 0.00 50 1008.4
20260508133004 50 355 0.0 0.0 0.00 0.00 0.00 52 1008.5
20260508132019 49 304 2.0 7.0 0.00 0.00 0.00 52 1008.5
20260508131003 49 346 0.0 0.0 0.00 0.00 0.00 51 1008.5
20260508130003 48 223 1.0 2.0 0.00 0.00 0.00 52 1008.3
20260508125004 47 223 0.0 0.0 0.00 0.00 0.00 54 1008.4
20260508124005 46 223 0.0 0.0 0.00 0.00 0.00 53 1008.4
20260508123003 46 223 0.0 0.0 0.00 0.00 0.00 54 1008.3
20260508122005 45 223 0.0 0.0 0.00 0.00 0.00 54 1008.2
20260508121018 45 223 0.0 0.0 0.00 0.00 0.00 53 1008.3
20260508120004 44 223 0.0 0.0 0.00 0.00 0.00 54 1008.1
20260508115003 44 223 0.0 0.0 0.00 0.00 0.00 54 1008.2
20260508114004 44 223 0.0 0.0 0.00 0.00 0.00 54 1008.2
20260508113005 44 223 1.0 2.0 0.00 0.00 0.00 54 1008.3
20260508112003 43 208 0.0 2.0 0.00 0.00 0.00 55 1008.2
20260508111004 42 208 0.0 0.0 0.00 0.00 0.00 56 1008.2
20260508110005 43 208 0.0 0.0 0.00 0.00 0.00 55 1008.2
20260508105004 43 208 0.0 0.0 0.00 0.00 0.00 55 1008.2
20260508104005 43 208 0.0 0.0 0.00 0.00 0.00 55 1008.2
20260508103003 43 208 0.0 0.0 0.00 0.00 0.00 54 1008.3
20260508102020 44 208 0.0 0.0 0.00 0.00 0.00 54 1008.4
20260508101003 44 208 0.0 0.0 0.00 0.00 0.00 54 1008.4
20260508100004 44 208 0.0 0.0 0.00 0.00 0.00 53 1008.4
20260508095004 44 208 0.0 0.0 0.00 0.00 0.00 53 1008.4
20260508094004 44 208 0.0 0.0 0.00 0.00 0.00 53 1008.4
20260508093019 44 208 0.0 0.0 0.00 0.00 0.00 53 1008.5
20260508092003 44 209 0.0 1.0 0.00 0.00 0.00 52 1008.3
20260508091004 44 210 0.0 0.0 0.00 0.00 0.00 52 1008.4
20260508090004 44 209 0.0 0.0 0.00 0.00 0.00 52 1008.4
20260508085004 44 209 0.0 0.0 0.00 0.00 0.00 52 1008.4
20260508084005 44 209 0.0 0.0 0.00 0.00 0.00 52 1008.4
20260508083003 44 209 0.0 0.0 0.00 0.00 0.00 52 1008.5
20260508082004 45 209 0.0 0.0 0.00 0.00 0.00 52 1008.5
20260508081020 45 209 0.0 0.0 0.00 0.00 0.00 51 1008.6
20260508080004 45 209 0.0 0.0 0.00 0.00 0.00 52 1008.7
20260508075003 45 189 1.0 2.0 0.00 0.00 0.00 49 1008.8
20260508074003 46 190 0.0 0.0 0.00 0.00 0.00 48 1008.8
20260508073003 46 193 0.0 0.0 0.00 0.00 0.00 48 1008.8
20260508072004 46 206 1.0 4.0 0.00 0.00 0.00 47 1008.9
20260508071003 46 182 0.0 1.0 0.00 0.00 0.00 47 1008.9
20260508070004 46 182 1.0 3.0 0.00 0.00 0.00 47 1008.9
20260508065004 46 186 0.0 1.0 0.00 0.00 0.00 48 1009.0
20260508064004 46 186 0.0 0.0 0.00 0.00 0.00 48 1009.1
20260508063004 46 186 0.0 0.0 0.00 0.00 0.00 48 1009.1
20260508062004 46 186 0.0 0.0 0.00 0.00 0.00 47 1009.1
20260508061004 46 186 0.0 2.0 0.00 0.00 0.00 47 1009.1
20260508060018 46 181 1.0 4.0 0.00 0.00 0.00 47 1009.0
20260508055019 46 176 0.0 0.0 0.00 0.00 0.00 46 1009.1
20260508054003 46 154 0.0 0.0 0.00 0.00 0.00 46 1009.1
20260508053019 46 153 0.0 2.0 0.00 0.00 0.00 46 1009.2
20260508052003 46 153 1.0 2.0 0.00 0.00 0.00 46 1009.4
20260508051004 46 355 0.0 1.0 0.00 0.00 0.00 47 1009.4
20260508050007 47 355 0.0 0.0 0.00 0.00 0.00 45 1009.3
20260508045003 48 355 0.0 1.0 0.00 0.00 0.00 44 1009.4
20260508044004 48 355 0.0 2.0 0.00 0.00 0.00 44 1009.5
20260508043003 48 355 0.0 0.0 0.00 0.00 0.00 43 1009.7
20260508042004 49 355 0.0 1.0 0.00 0.00 0.00 44 1009.6
20260508041020 49 355 0.0 0.0 0.00 0.00 0.00 43 1009.6
20260508040004 49 355 0.0 0.0 0.00 0.00 0.00 43 1009.7
20260508035005 50 355 0.0 0.0 0.00 0.00 0.00 42 1009.8
20260508034003 50 355 0.0 0.0 0.00 0.00 0.00 43 1009.8
20260508033005 50 355 0.0 0.0 0.00 0.00 0.00 42 1009.9
20260508032004 50 355 0.0 0.0 0.00 0.00 0.00 43 1010.0
20260508031003 51 355 0.0 0.0 0.00 0.00 0.00 42 1009.9
20260508030004 51 355 0.0 0.0 0.00 0.00 0.00 42 1009.9
20260508025004 52 355 0.0 0.0 0.00 0.00 0.00 41 1009.9
20260508024003 52 355 0.0 0.0 0.00 0.00 0.00 39 1010.0
20260508023019 53 355 0.0 0.0 0.00 0.00 0.00 37 1009.9
20260508022004 54 355 0.0 0.0 0.00 0.00 0.00 38 1009.9
20260508021004 55 355 0.0 0.0 0.00 0.00 0.00 37 1009.9
20260508020004 56 355 0.0 0.0 0.00 0.00 0.00 35 1009.7
20260508015003 56 355 0.0 0.0 0.00 0.00 0.00 33 1009.8
20260508014004 57 355 0.0 0.0 0.00 0.00 0.00 32 1009.7
20260508013004 58 355 0.0 0.0 0.00 0.00 0.00 31 1009.7
20260508012004 58 355 0.0 0.0 0.00 0.00 0.00 30 1009.6
20260508011003 59 351 1.0 6.0 0.00 0.00 0.00 30 1009.5
20260508010004 59 350 0.0 2.0 0.00 0.00 0.00 29 1009.6
20260508005004 59 351 3.0 3.0 0.00 0.00 0.00 28 1009.4
20260508004004 60 337 2.0 5.0 0.00 0.00 0.00 28 1009.5
20260508003004 60 340 1.0 4.0 0.00 0.00 0.00 27 1009.4
20260508002002 60 323 2.0 4.0 0.00 0.00 0.00 27 1009.5
20260508001004 60 330 3.0 6.0 0.00 0.00 0.00 27 1009.5
20260508000003 60 337 3.0 4.0 0.00 0.00 0.00 26 1009.5
20260507235002 61 339 3.0 6.0 0.00 0.00 0.00 26 1009.5
20260507234003 61 344 6.0 10.0 0.00 0.00 0.00 25 1009.5
20260507233003 61 327 2.0 9.0 0.00 0.00 0.00 26 1009.5
20260507232003 61 354 2.0 9.0 0.00 0.00 0.00 26 1009.5
20260507231004 62 339 3.0 5.0 0.00 0.00 0.00 25 1009.6
20260507230004 63 349 1.0 5.0 0.00 0.00 0.00 26 1009.5
20260507225003 62 9 4.0 4.0 0.00 0.00 0.00 26 1009.6
20260507224004 62 316 2.0 3.0 0.00 0.00 0.00 27 1009.7
20260507223005 63 350 6.0 10.0 0.00 0.00 0.00 25 1009.7
20260507222005 62 354 4.0 9.0 0.00 0.00 0.00 27 1009.7
20260507221004 62 350 6.0 8.0 0.00 0.00 0.00 25 1009.8
20260507220020 63 298 3.0 8.0 0.00 0.00 0.00 26 1009.9
20260507215003 62 241 7.0 12.0 0.00 0.00 0.00 26 1010.1
20260507214004 63 325 5.0 8.0 0.00 0.00 0.00 27 1010.2
20260507213005 62 338 0.0 2.0 0.00 0.00 0.00 27 1010.2
20260507212019 62 348 4.0 8.0 0.00 0.00 0.00 28 1010.3
20260507211003 62 303 4.0 12.0 0.00 0.00 0.00 27 1010.3
20260507210004 62 263 2.0 6.0 0.00 0.00 0.00 27 1010.4
20260507205005 62 325 3.0 8.0 0.00 0.00 0.00 28 1010.4
20260507204005 62 308 0.0 1.0 0.00 0.00 0.00 30 1010.5
20260507203003 62 332 4.0 11.0 0.00 0.00 0.00 29 1010.5
20260507202004 62 297 2.0 2.0 0.00 0.00 0.00 27 1010.6
20260507201005 61 323 1.0 2.0 0.00 0.00 0.00 30 1010.7
20260507200004 61 306 2.0 4.0 0.00 0.00 0.00 31 1010.8
20260507195004 60 329 4.0 4.0 0.00 0.00 0.00 28 1010.8
20260507194018 60 335 7.0 12.0 0.00 0.00 0.00 29 1010.7
20260507193004 60 287 1.0 2.0 0.00 0.00 0.00 29 1010.9
20260507192004 60 310 4.0 7.0 0.00 0.00 0.00 30 1011.1
20260507191003 59 320 2.0 5.0 0.00 0.00 0.00 31 1011.1
20260507190004 59 312 5.0 8.0 0.00 0.00 0.00 32 1011.3